Flag for Germany Weather past 2 weeks in Darmstadt, Hesse, Germany

Now
54 °F

Light fog.


Feels Like: 53 °F
Forecast: 53 / 68 °F
Wind: 3 mph from Northeast

Location: Frankfurt-M-Flughafen Airport

Current Time: Oct 2, 2014 at 3:25:40 AM

Latest Report: Oct 2, 2014 at 2:50 AM


Visibility: N/A

Pressure: 30.36 "Hg

Humidity: 100%

Dew point: 54 °F

Location of DarmstadtLocation

Historic Weather in Darmstadt — Graph

°F

Darmstadt temperature yesterday

Maximum temperature yesterday: 72 °F (at 2:20 PM)
Minimum temperature yesterday: 54 °F (at 4:20 AM)
Average temperature yesterday: 61 °F

Past Weeks' High & Low Weather Summary

 TemperatureHumidityPressure
High77 °F (Sep 17, 3:50 PM)100% (Sep 17, 2:20 AM)30.39 "Hg (Sep 17, 2:20 AM)
Low43 °F (Sep 23, 2:50 AM)47% (Sep 17, 3:50 PM)29.86 "Hg (Sep 17, 4:50 PM)
Average60 °F85%30.11 "Hg
* Reported Sep 17 2:20 AM — Oct 2 2:20 AM, Darmstadt, Weather by CustomWeather, © 2014

Note: Actual official high and low records may vary slightly from our data, if they occured in-between our weather recording intervals... More about our weather records

Advertising

Darmstadt weather history for previous 24 hours

 ConditionsComfort  
Time TempWeatherWind HumidityBarometerVisibility
2:20 AM
Oct 2
54 °FLight fog.2 mph100%30.36 "HgN/A
1:50 AM54 °FLight fog.2 mph100%30.36 "HgN/A
1:20 AM54 °FLight fog.2 mph100%30.36 "HgN/A
12:50 AM55 °FLight fog.2 mph100%30.36 "HgN/A
12:20 AM55 °FLight fog.1 mph100%30.36 "HgN/A
11:50 PM
Oct 1
55 °FLight fog.2 mph100%30.36 "HgN/A
11:20 PM57 °FLight fog.2 mph100%30.33 "HgN/A
10:50 PM57 °FLight fog.3 mph94%30.33 "HgN/A
10:20 PM59 °FLight fog.1 mph94%30.33 "HgN/A
9:50 PM61 °FLight fog.2 mph94%30.33 "HgN/A
9:20 PM61 °FLight fog.1 mph94%30.33 "HgN/A
8:50 PM63 °FLight fog.1 mph88%30.33 "HgN/A
8:20 PM64 °FLight fog.1 mph83%30.33 "HgN/A
7:50 PM64 °FPassing clouds.1 mph78%30.30 "HgN/A
7:20 PM66 °FPassing clouds.2 mph78%30.30 "HgN/A
6:50 PM68 °FPassing clouds.2 mph73%30.30 "HgN/A
6:20 PM70 °FScattered clouds.2 mph73%30.30 "HgN/A
5:50 PM70 °FScattered clouds.3 mph73%30.30 "HgN/A
5:20 PM70 °FBroken clouds.2 mph73%30.30 "HgN/A
4:50 PM68 °FBroken clouds.2 mph78%30.30 "HgN/A
4:20 PM68 °FBroken clouds.3 mph78%30.30 "HgN/A
3:50 PM68 °FBroken clouds.3 mph73%30.30 "HgN/A
3:20 PM68 °FBroken clouds.5 mph78%30.30 "HgN/A
2:50 PM68 °FPartly sunny.6 mph78%30.30 "HgN/A
2:20 PM72 °FScattered clouds.2 mph73%30.30 "HgN/A
1:50 PM70 °FScattered clouds.1 mph73%30.30 "HgN/A
1:20 PM66 °FScattered clouds.3 mph83%30.33 "Hg5 mi
12:50 PM64 °FPassing clouds.1 mph94%30.33 "Hg4 mi
12:20 PM61 °FFog.3 mph100%30.33 "Hg2 mi
11:50 AM59 °FFog.3 mph100%30.33 "Hg1 mi
11:20 AM59 °FFog.3 mph100%30.33 "Hg1 mi
10:50 AM59 °FFog.2 mph100%30.33 "Hg1 mi
10:20 AM59 °FFog.1 mph100%30.33 "Hg1 mi
9:50 AM57 °FFog.2 mph100%30.30 "Hg0 mi
9:20 AM57 °FFog.3 mph100%30.30 "Hg0 mi
8:50 AM57 °FFog.3 mph100%30.30 "Hg0 mi
8:20 AM57 °FFog.2 mph100%30.30 "Hg0 mi
7:50 AM57 °FFog.2 mph100%30.30 "Hg0 mi
7:20 AM57 °FCool.2 mph100%30.30 "Hg0 mi
6:50 AM57 °FCool.3 mph100%30.30 "Hg0 mi
6:20 AM55 °FFog.2 mph100%30.30 "Hg0 mi
5:50 AM55 °FPartly cloudy.2 mph100%30.30 "Hg1 mi
5:20 AM55 °FPassing clouds.2 mph100%30.30 "Hg4 mi
4:50 AM54 °FLight fog.2 mph100%30.30 "Hg4 mi
4:20 AM54 °FLight fog.2 mph100%30.30 "Hg4 mi
3:50 AM55 °FFog.1 mph100%30.30 "Hg4 mi
3:20 AM57 °FFog.1 mph100%30.30 "Hg5 mi
Weather by CustomWeather, © 2014

See weather overviewHow to use our weather pages